GW7039 Weather Reports


time (UTC)temp
C
wind
direction
speed
KPH
gust
KPH
rain 1hr
cm
rain 24hr
cm
rain mn
cm
humidity
%
barometer
mb
20260504043009 13 192 6.4 6.4 0.00 0.00 0.00 69 1006.8
20260504042506 13 151 3.2 9.7 0.00 0.00 0.00 68 1006.7
20260504042003 13 191 3.2 9.7 0.00 0.00 0.00 67 1006.9
20260504041459 14 147 8.0 11.3 0.00 0.00 0.00 66 1006.7
20260504040954 14 175 3.2 11.3 0.00 0.00 0.00 66 1006.6
20260504040453 14 124 3.2 12.9 0.00 0.00 0.00 66 1006.7
20260504035948 14 152 4.8 9.7 0.00 0.00 0.00 65 1006.7
20260504035446 14 166 8.0 12.9 0.00 0.00 0.00 65 1006.6
20260504034942 15 167 4.8 6.4 0.00 0.00 0.00 65 1006.7
20260504034440 15 167 6.4 11.3 0.00 0.00 0.00 64 1006.6
20260504033937 15 149 6.4 11.3 0.00 0.00 0.00 64 1006.7
20260504033435 15 142 8.0 9.7 0.00 0.00 0.00 63 1006.9
20260504032932 15 158 6.4 9.7 0.00 0.00 0.00 63 1007.1
20260504032428 15 152 6.4 9.7 0.00 0.00 0.00 63 1007.1
20260504031925 15 193 6.4 9.7 0.00 0.00 0.00 63 1007.2
20260504031422 15 177 3.2 4.8 0.00 0.00 0.00 64 1007.2
20260504030919 15 158 4.8 6.4 0.00 0.00 0.00 63 1007.2
20260504030416 15 149 3.2 4.8 0.00 0.00 0.00 63 1007.3
20260504025912 15 174 6.4 9.7 0.00 0.00 0.00 62 1007.2
20260504025409 15 164 3.2 6.4 0.00 0.00 0.00 62 1007.2
20260504024906 15 172 1.6 6.4 0.00 0.00 0.00 62 1007.5
20260504024403 15 145 3.2 4.8 0.00 0.00 0.00 62 1007.3
20260504023900 15 157 6.4 11.3 0.00 0.00 0.00 61 1007.4
20260504023356 15 155 3.2 4.8 0.00 0.00 0.00 61 1007.2
20260504022851 15 138 1.6 6.4 0.00 0.00 0.00 61 1007.2
20260504022349 16 150 3.2 4.8 0.00 0.00 0.00 61 1007.3
20260504021845 16 134 3.2 12.9 0.00 0.00 0.00 60 1007.2
20260504021342 16 182 4.8 9.7 0.00 0.00 0.00 59 1007.2
20260504020839 16 185 4.8 4.8 0.00 0.00 0.00 59 1007.2
20260504020336 16 142 1.6 4.8 0.00 0.00 0.00 59 1006.9
20260504015832 16 176 6.4 9.7 0.00 0.00 0.00 58 1006.8
20260504015328 16 156 3.2 6.4 0.00 0.00 0.00 57 1006.8
20260504014825 16 169 3.2 9.7 0.00 0.00 0.00 57 1006.8
20260504014320 16 184 4.8 9.7 0.00 0.00 0.00 57 1006.7
20260504013819 17 155 3.2 9.7 0.00 0.00 0.00 57 1006.5
20260504013316 17 171 6.4 11.3 0.00 0.00 0.00 56 1006.7
20260504012813 17 176 6.4 6.4 0.00 0.00 0.00 56 1006.7
20260504012311 17 182 6.4 12.9 0.00 0.00 0.00 55 1006.6
20260504011808 17 146 9.7 12.9 0.00 0.00 0.00 55 1006.5
20260504011304 17 191 8.0 14.5 0.00 0.00 0.00 54 1006.4
20260504010800 17 201 8.0 12.9 0.00 0.00 0.00 53 1006.4
20260504010255 17 178 6.4 9.7 0.00 0.00 0.00 53 1006.4
20260504005753 17 183 6.4 6.4 0.00 0.00 0.00 53 1006.4
20260504005249 18 146 6.4 11.3 0.00 0.00 0.00 51 1006.5
20260504004747 18 184 4.8 9.7 0.00 0.00 0.00 51 1006.4
20260504004244 18 156 8.0 12.9 0.00 0.00 0.00 50 1006.4
20260504003741 18 136 4.8 9.7 0.00 0.00 0.00 50 1006.5
20260504003238 18 225 4.8 9.7 0.00 0.00 0.00 50 1006.4
20260504002734 19 179 8.0 12.9 0.00 0.00 0.00 49 1006.5
20260504002231 19 168 6.4 20.9 0.00 0.00 0.00 48 1006.5
20260504001729 19 212 6.4 12.9 0.00 0.00 0.00 48 1006.3
20260504001226 19 170 6.4 11.3 0.00 0.00 0.00 48 1006.5
20260504000722 20 168 6.4 11.3 0.00 0.00 0.00 47 1006.6
20260504000219 20 196 6.4 9.7 0.00 0.00 0.00 46 1006.5
20260503235718 20 184 4.8 12.9 0.00 0.00 0.00 46 1006.3
20260503235214 20 192 9.7 17.7 0.00 0.00 0.00 46 1006.5
20260503234712 20 233 11.3 17.7 0.00 0.00 0.00 45 1006.4
20260503234210 20 218 14.5 24.1 0.00 0.00 0.00 45 1006.4
20260503233707 20 244 19.3 24.1 0.00 0.00 0.00 44 1006.7
20260503233203 20 168 8.0 12.9 0.00 0.00 0.00 44 1006.6
20260503232700 20 210 17.7 25.7 0.00 0.00 0.00 44 1006.6
20260503232157 20 180 6.4 17.7 0.00 0.00 0.00 44 1006.5
20260503231655 20 200 12.9 22.5 0.00 0.00 0.00 44 1006.6
20260503231151 20 186 12.9 24.1 0.00 0.00 0.00 43 1006.7
20260503230648 20 186 11.3 22.5 0.00 0.00 0.00 44 1006.5
20260503230145 20 212 19.3 25.7 0.00 0.00 0.00 43 1006.6
20260503225642 20 207 9.7 14.5 0.00 0.00 0.00 44 1006.8
20260503225142 20 211 14.5 22.5 0.00 0.00 0.00 45 1006.7
20260503224640 20 190 9.7 14.5 0.00 0.00 0.00 44 1006.7
20260503224137 20 210 12.9 14.5 0.00 0.00 0.00 44 1006.8
20260503223635 20 155 22.5 29.0 0.00 0.00 0.00 44 1006.8
20260503223131 20 202 16.1 20.9 0.00 0.00 0.00 44 1006.8
20260503222629 20 149 16.1 24.1 0.00 0.00 0.00 43 1007.2
20260503222126 20 184 14.5 25.7 0.00 0.00 0.00 44 1007.1
20260503221625 20 146 9.7 16.1 0.00 0.00 0.00 44 1007.1
20260503221122 20 168 11.3 17.7 0.00 0.00 0.00 43 1007.3
20260503220618 20 196 6.4 25.7 0.00 0.00 0.00 43 1007.1
20260503220115 20 179 16.1 22.5 0.00 0.00 0.00 43 1007.2
20260503215612 20 171 11.3 17.7 0.00 0.00 0.00 43 1007.3
20260503215109 19 171 11.3 22.5 0.00 0.00 0.00 45 1007.4
20260503214607 19 181 17.7 33.8 0.00 0.00 0.00 44 1007.4
20260503214103 19 188 17.7 24.1 0.00 0.00 0.00 45 1007.5
20260503213602 19 186 20.9 24.1 0.00 0.00 0.00 43 1007.6
20260503213058 18 149 14.5 27.4 0.00 0.00 0.00 44 1007.7
20260503212556 18 203 19.3 25.7 0.00 0.00 0.00 45 1007.8
20260503212053 18 192 14.5 33.8 0.00 0.00 0.00 44 1007.7
20260503211550 18 231 22.5 33.8 0.00 0.00 0.00 43 1008.1
20260503211045 18 238 14.5 24.1 0.00 0.00 0.00 44 1008.0
20260503210542 20 168 19.3 29.0 0.00 0.00 0.00 42 1008.1
20260503210038 19 145 16.1 25.7 0.00 0.00 0.00 43 1008.2
20260503205535 18 210 14.5 35.4 0.00 0.00 0.00 43 1008.1
20260503205032 18 163 17.7 37.0 0.00 0.00 0.00 42 1008.5
20260503204528 18 189 16.1 49.9 0.00 0.00 0.00 42 1008.6
20260503204025 18 147 20.9 29.0 0.00 0.00 0.00 41 1008.6
20260503203523 18 170 17.7 33.8 0.00 0.00 0.00 41 1008.7
20260503203020 17 179 22.5 27.4 0.00 0.00 0.00 43 1008.8
20260503202517 18 162 22.5 27.4 0.00 0.00 0.00 43 1008.8
20260503202015 18 152 16.1 30.6 0.00 0.00 0.00 42 1008.9
20260503201514 19 156 20.9 37.0 0.00 0.00 0.00 41 1009.0
20260503201010 18 151 11.3 17.7 0.00 0.00 0.00 44 1009.1
20260503200506 18 176 17.7 27.4 0.00 0.00 0.00 43 1009.2
20260503200003 17 163 19.3 30.6 0.00 0.00 0.00 43 1009.1
20260503195500 17 166 17.7 30.6 0.00 0.00 0.00 45 1009.0
20260503194956 17 191 19.3 38.6 0.00 0.00 0.00 47 1009.4
20260503194454 17 157 32.2 38.6 0.00 0.00 0.00 47 1009.3
20260503193949 17 201 32.2 40.2 0.00 0.00 0.00 48 1009.5
20260503193445 17 192 20.9 35.4 0.00 0.00 0.00 50 1009.7
20260503192940 17 170 12.9 25.7 0.00 0.00 0.00 51 1009.7
20260503192437 16 160 19.3 29.0 0.00 0.00 0.00 54 1009.5
20260503191933 16 206 14.5 29.0 0.00 0.00 0.00 57 1009.7
20260503191431 16 199 17.7 38.6 0.00 0.00 0.00 58 1009.6
20260503190927 16 191 24.1 33.8 0.00 0.00 0.00 56 1009.8
20260503190424 15 142 22.5 35.4 0.00 0.00 0.00 56 1009.9
20260503185921 15 177 16.1 35.4 0.00 0.00 0.00 57 1010.0
20260503185418 15 202 16.1 27.4 0.00 0.00 0.00 58 1010.2
20260503184916 15 184 22.5 33.8 0.00 0.00 0.00 59 1010.1
20260503184414 15 155 16.1 33.8 0.00 0.00 0.00 61 1010.2
20260503183910 14 177 12.9 27.4 0.00 0.00 0.00 62 1010.4
20260503183407 14 170 14.5 43.5 0.00 0.00 0.00 60 1010.5
20260503182904 13 163 12.9 30.6 0.00 0.00 0.00 61 1010.5
20260503182403 13 152 16.1 30.6 0.00 0.00 0.00 60 1010.7
20260503181859 13 162 16.1 35.4 0.00 0.00 0.00 63 1010.7
20260503181356 13 169 9.7 37.0 0.00 0.00 0.00 65 1010.9
20260503180853 13 159 16.1 25.7 0.00 0.00 0.00 64 1011.0
20260503180351 12 144 22.5 30.6 0.00 0.00 0.00 64 1010.9
20260503175847 12 144 12.9 30.6 0.00 0.00 0.00 65 1011.3
20260503175345 12 160 11.3 22.5 0.00 0.00 0.00 66 1011.3
20260503174840 12 159 14.5 22.5 0.00 0.00 0.00 69 1011.7
20260503174340 12 173 16.1 25.7 0.00 0.00 0.00 70 1011.7
20260503173839 11 174 12.9 24.1 0.00 0.00 0.00 70 1012.0
20260503173336 11 186 14.5 20.9 0.00 0.00 0.00 74 1012.4
20260503172833 11 149 12.9 24.1 0.00 0.00 0.00 75 1012.5
20260503172331 11 169 16.1 25.7 0.00 0.00 0.00 75 1012.7
20260503171832 11 184 14.5 25.7 0.00 0.00 0.00 77 1012.8
20260503171329 11 186 19.3 25.7 0.00 0.00 0.00 76 1013.2
20260503170826 11 160 24.1 29.0 0.00 0.00 0.00 77 1013.3
20260503170322 10 162 17.7 27.4 0.00 0.00 0.00 76 1013.4
20260503150715 12 220 19.3 25.7 0.00 0.00 0.00 59 1014.5
20260503150211 11 216 19.3 22.5 0.00 0.00 0.00 62 1014.4
20260503140135 10 172 6.4 20.9 0.00 0.00 0.00 61 1014.9
20260503131105 10 206 8.0 12.9 0.00 0.00 0.00 62 1015.0
20260503130602 9 183 9.7 17.7 0.00 0.00 0.00 62 1015.1
20260503110452 7 166 8.0 11.3 0.00 0.00 0.00 65 1014.9
20260503090344 6 180 4.8 9.7 0.00 0.00 0.00 63 1015.2
20260503081311 6 147 4.8 9.7 0.00 0.00 0.00 62 1015.6
20260503080807 6 172 4.8 6.4 0.00 0.00 0.00 63 1015.5
20260503080305 6 177 4.8 9.7 0.00 0.00 0.00 62 1015.6
20260503072741 6 156 3.2 6.4 0.00 0.00 0.00 64 1015.6
20260503072238 6 175 4.8 4.8 0.00 0.00 0.00 63 1015.6
20260503071734 6 145 3.2 3.2 0.00 0.00 0.00 64 1015.7
20260503071231 6 147 1.6 4.8 0.00 0.00 0.00 64 1015.7
20260503070728 6 136 4.8 4.8 0.00 0.00 0.00 63 1015.8
20260503070226 6 201 8.0 9.7 0.00 0.00 0.00 63 1015.9
20260503060151 7 168 3.2 6.4 0.00 0.00 0.00 60 1016.3
20260503054638 7 155 4.8 6.4 0.00 0.00 0.00 60 1016.5
20260503054135 7 160 3.2 4.8 0.00 0.00 0.00 60 1016.5
20260503053633 7 167 4.8 6.4 0.00 0.00 0.00 60 1016.5
20260503053132 7 164 3.2 4.8 0.00 0.00 0.00 60 1016.6
20260503052627 6 156 3.2 4.8 0.00 0.00 0.00 62 1016.7
20260503052124 7 186 3.2 4.8 0.00 0.00 0.00 63 1016.7
20260503051619 7 146 4.8 4.8 0.00 0.00 0.00 61 1016.7
20260503051117 7 144 1.6 4.8 0.00 0.00 0.00 62 1016.8
20260503050613 7 148 3.2 4.8 0.00 0.00 0.00 62 1016.8
20260503050110 7 159 3.2 6.4 0.00 0.00 0.00 62 1016.8
20260503045608 6 167 3.2 6.4 0.00 0.00 0.00 62 1017.0
20260503045105 6 168 3.2 4.8 0.00 0.00 0.00 63 1016.8
20260503044601 6 149 3.2 3.2 0.00 0.00 0.00 64 1016.9
20260503044059 6 149 1.6 3.2 0.00 0.00 0.00 64 1016.8
20260503043555 6 149 3.2 3.2 0.00 0.00 0.00 64 1017.0